IZ3LCH-13 Weather Reports


time (UTC)temp
C
wind
direction
speed
KPH
gust
KPH
rain 1hr
cm
rain 24hr
cm
rain mn
cm
humidity
%
barometer
mb
20260906100003 29 83 4.8 12.9 0.00 0.00 0.00 55 1021.5
20260906095503 28 74 6.4 14.5 0.00 0.00 0.00 56 1021.8
20260906095003 28 76 6.4 14.5 0.00 0.00 0.00 54 1021.7
20260906094503 28 54 4.8 12.9 0.00 0.00 0.00 55 1021.8
20260906094003 28 34 6.4 14.5 0.00 0.00 0.00 54 1022.0
20260906093503 28 32 8.0 17.7 0.00 0.00 0.00 54 1022.1
20260906093003 28 22 8.0 17.7 0.00 0.00 0.00 54 1021.7
20260906092503 28 52 8.0 16.1 0.00 0.00 0.00 55 1021.8
20260906092003 28 79 6.4 14.5 0.00 0.00 0.00 55 1021.9
20260906091503 28 58 4.8 12.9 0.00 0.00 0.00 56 1022.0
20260906091003 28 46 6.4 12.9 0.00 0.00 0.00 55 1021.7
20260906090503 28 30 6.4 16.1 0.00 0.00 0.00 55 1022.1
20260906090003 28 24 6.4 16.1 0.00 0.00 0.00 55 1021.8
20260906085503 27 28 6.4 14.5 0.00 0.00 0.00 55 1022.0
20260906085003 27 44 6.4 14.5 0.00 0.00 0.00 56 1022.1
20260906084503 27 48 6.4 14.5 0.00 0.00 0.00 55 1022.1
20260906084003 27 41 6.4 14.5 0.00 0.00 0.00 55 1021.9
20260906083503 27 43 6.4 14.5 0.00 0.00 0.00 55 1022.0
20260906083003 27 41 6.4 14.5 0.00 0.00 0.00 53 1022.0
20260906082503 27 35 6.4 14.5 0.00 0.00 0.00 53 1021.9
20260906082003 27 48 6.4 14.5 0.00 0.00 0.00 53 1021.9
20260906081503 27 55 6.4 17.7 0.00 0.00 0.00 53 1021.8
20260906081003 27 45 4.8 17.7 0.00 0.00 0.00 53 1021.9
20260906080503 26 44 4.8 17.7 0.00 0.00 0.00 54 1021.8
20260906080003 26 43 6.4 17.7 0.00 0.00 0.00 55 1021.8
20260906075503 26 34 6.4 12.9 0.00 0.00 0.00 55 1021.6
20260906075003 26 25 6.4 17.7 0.00 0.00 0.00 56 1021.6
20260906074503 26 31 8.0 20.9 0.00 0.00 0.00 56 1021.8
20260906074003 26 33 8.0 20.9 0.00 0.00 0.00 55 1021.5
20260906073504 26 26 8.0 17.7 0.00 0.00 0.00 56 1021.5
20260906073003 25 27 8.0 16.1 0.00 0.00 0.00 57 1021.5
20260906072503 25 25 8.0 17.7 0.00 0.00 0.00 58 1021.6
20260906072003 25 24 6.4 17.7 0.00 0.00 0.00 59 1021.6
20260906071503 25 20 6.4 14.5 0.00 0.00 0.00 61 1021.5
20260906071003 25 17 6.4 14.5 0.00 0.00 0.00 62 1021.5
20260906070503 24 13 8.0 17.7 0.00 0.00 0.00 62 1021.6
20260906070003 24 10 8.0 17.7 0.00 0.00 0.00 62 1021.6
20260906065503 24 8 8.0 16.1 0.00 0.00 0.00 62 1021.7
20260906065003 23 9 6.4 16.1 0.00 0.00 0.00 64 1021.2
20260906064503 23 14 8.0 17.7 0.00 0.00 0.00 63 1021.2
20260906064003 23 13 9.7 17.7 0.00 0.00 0.00 65 1021.1
20260906063503 23 12 8.0 14.5 0.00 0.00 0.00 65 1021.0
20260906063003 23 17 6.4 14.5 0.00 0.00 0.00 67 1021.2
20260906062503 23 18 6.4 12.9 0.00 0.00 0.00 68 1021.1
20260906062003 22 18 6.4 12.9 0.00 0.00 0.00 69 1020.9
20260906061503 22 15 6.4 9.7 0.00 0.00 0.00 69 1020.9
20260906061003 22 12 4.8 11.3 0.00 0.00 0.00 70 1020.9
20260906060503 22 10 4.8 11.3 0.00 0.00 0.00 70 1020.7
20260906060003 22 15 4.8 9.7 0.00 0.00 0.00 71 1020.8
20260906055503 22 17 4.8 9.7 0.00 0.00 0.00 71 1020.6
20260906055004 22 5 3.2 6.4 0.00 0.00 0.00 72 1021.0
20260906054503 21 359 4.8 8.0 0.00 0.00 0.00 72 1021.0
20260906054003 21 357 4.8 8.0 0.00 0.00 0.00 72 1020.8
20260906053503 21 360 3.2 8.0 0.00 0.00 0.00 73 1020.7
20260906053003 21 4 3.2 6.4 0.00 0.00 0.00 73 1020.5
20260906052503 21 358 3.2 8.0 0.00 0.00 0.00 73 1020.5
20260906052003 21 353 3.2 8.0 0.00 0.00 0.00 73 1020.5
20260906051503 21 357 1.6 4.8 0.00 0.00 0.00 73 1020.2
20260906051003 21 2 1.6 6.4 0.00 0.00 0.00 73 1020.2
20260906050503 21 357 3.2 6.4 0.00 0.00 0.00 73 1020.3
20260906050003 21 356 3.2 6.4 0.00 0.00 0.00 73 1020.0
20260906045503 21 357 3.2 8.0 0.00 0.00 0.00 73 1020.3
20260906045003 21 353 4.8 8.0 0.00 0.00 0.00 73 1020.0
20260906044503 21 354 3.2 8.0 0.00 0.00 0.00 73 1020.1
20260906044003 21 354 3.2 8.0 0.00 0.00 0.00 73 1020.0
20260906043503 21 342 3.2 6.4 0.00 0.00 0.00 73 1020.0
20260906043003 21 343 3.2 6.4 0.00 0.00 0.00 73 1020.1
20260906042503 21 350 3.2 6.4 0.00 0.00 0.00 73 1019.9
20260906042003 21 354 3.2 6.4 0.00 0.00 0.00 73 1019.9
20260906041503 21 359 3.2 6.4 0.00 0.00 0.00 73 1019.7
20260906041003 21 3 3.2 6.4 0.00 0.00 0.00 73 1019.9
20260906040503 21 359 3.2 8.0 0.00 0.00 0.00 73 1019.8
20260906040003 21 355 3.2 8.0 0.00 0.00 0.00 74 1019.7
20260906035503 21 5 3.2 6.4 0.00 0.00 0.00 74 1019.6
20260906035003 21 8 3.2 6.4 0.00 0.00 0.00 74 1019.3
20260906034503 21 1 4.8 8.0 0.00 0.00 0.00 74 1019.4
20260906034003 21 10 3.2 9.7 0.00 0.00 0.00 75 1019.5
20260906033503 21 13 3.2 9.7 0.00 0.00 0.00 75 1019.3
20260906033003 21 360 3.2 8.0 0.00 0.00 0.00 75 1019.4
20260906032503 21 356 3.2 8.0 0.00 0.00 0.00 75 1019.2
20260906032003 22 350 3.2 6.4 0.00 0.00 0.00 75 1019.2
20260906031503 22 348 4.8 8.0 0.00 0.00 0.00 75 1019.2
20260906031003 22 352 4.8 8.0 0.00 0.00 0.00 76 1019.3
20260906030503 22 350 4.8 9.7 0.00 0.00 0.00 76 1019.4
20260906030003 22 349 6.4 9.7 0.00 0.00 0.00 77 1019.2
20260906025503 22 352 6.4 9.7 0.00 0.00 0.00 77 1019.3
20260906025003 22 353 4.8 9.7 0.00 0.00 0.00 77 1019.2
20260906024503 22 349 3.2 8.0 0.00 0.00 0.00 78 1019.4
20260906024003 22 346 3.2 8.0 0.00 0.00 0.00 78 1019.3
20260906023503 22 341 3.2 6.4 0.00 0.00 0.00 78 1019.6
20260906023003 22 345 3.2 8.0 0.00 0.00 0.00 78 1019.3
20260906022503 22 350 4.8 8.0 0.00 0.00 0.00 78 1019.3
20260906022003 22 353 4.8 8.0 0.00 0.00 0.00 78 1019.2
20260906021503 22 355 3.2 8.0 0.00 0.00 0.00 78 1019.0
20260906021003 22 351 3.2 6.4 0.00 0.00 0.00 79 1019.1
20260906020503 22 357 3.2 6.4 0.00 0.00 0.00 79 1019.1
20260906020004 22 4 3.2 6.4 0.00 0.00 0.00 79 1019.3
20260906015503 22 4 3.2 6.4 0.00 0.00 0.00 80 1019.3
20260906015003 22 7 3.2 6.4 0.00 0.00 0.00 80 1019.0
20260906014503 22 5 3.2 6.4 0.00 0.00 0.00 80 1019.0
20260906014003 23 3 4.8 8.0 0.00 0.00 0.00 80 1019.3
20260906013503 23 8 3.2 8.0 0.00 0.00 0.00 81 1019.1
20260906013003 23 7 3.2 6.4 0.00 0.00 0.00 81 1019.2
20260906012503 23 5 3.2 6.4 0.00 0.00 0.00 81 1019.0
20260906012003 23 6 3.2 6.4 0.00 0.00 0.00 81 1018.9
20260906011503 23 5 3.2 8.0 0.00 0.00 0.00 82 1019.0
20260906011003 23 8 3.2 8.0 0.00 0.00 0.00 82 1019.0
20260906010503 23 13 4.8 11.3 0.00 0.00 0.00 82 1019.0
20260906010003 23 14 4.8 11.3 0.00 0.00 0.00 82 1018.8
20260906005503 23 15 6.4 9.7 0.00 0.00 0.00 82 1019.0
20260906005003 23 18 6.4 11.3 0.00 0.00 0.00 82 1018.8
20260906004503 23 18 6.4 11.3 0.00 0.00 0.00 82 1018.9
20260906004003 23 19 6.4 9.7 0.00 0.00 0.00 82 1018.9
20260906003503 23 19 4.8 9.7 0.00 0.00 0.00 82 1018.9
20260906003003 23 18 4.8 8.0 0.00 0.00 0.00 82 1018.8
20260906002503 23 18 4.8 8.0 0.00 0.00 0.00 82 1019.1
20260906002003 23 12 4.8 8.0 0.00 0.00 0.00 82 1019.0
20260906001503 23 12 4.8 8.0 0.00 0.00 0.00 82 1019.1
20260906001003 23 20 4.8 9.7 0.00 0.00 0.00 82 1019.2
20260906000503 23 18 4.8 9.7 0.00 0.00 0.00 82 1019.1
20260906000003 23 4 4.8 9.7 0.00 0.00 0.00 82 1019.3
20260905235503 23 358 4.8 6.4 0.00 0.00 0.00 82 1019.0
20260905235003 23 4 3.2 6.4 0.00 0.00 0.00 82 1019.1
20260905234503 23 4 3.2 4.8 0.00 0.00 0.00 82 1019.0
20260905234003 23 11 3.2 6.4 0.00 0.00 0.00 82 1018.9
20260905233503 23 9 3.2 6.4 0.00 0.00 0.00 82 1018.9
20260905233003 23 2 4.8 6.4 0.00 0.00 0.00 81 1018.8
20260905232503 23 5 4.8 6.4 0.00 0.00 0.00 81 1018.6
20260905232003 23 14 4.8 6.4 0.00 0.00 0.00 81 1018.7
20260905231503 23 16 3.2 6.4 0.00 0.00 0.00 80 1018.6
20260905231003 23 16 3.2 4.8 0.00 0.00 0.00 80 1018.8
20260905230503 23 13 1.6 4.8 0.00 0.00 0.00 80 1019.1
20260905230003 23 11 3.2 4.8 0.00 0.00 0.00 80 1018.7
20260905225503 23 13 1.6 4.8 0.00 0.00 0.00 80 1018.9
20260905225003 23 18 1.6 4.8 0.00 0.00 0.00 79 1018.6
20260905224503 23 28 1.6 3.2 0.00 0.00 0.00 79 1018.4
20260905224003 23 36 1.6 3.2 0.00 0.00 0.00 79 1018.5
20260905223503 23 27 1.6 3.2 0.00 0.00 0.00 78 1018.5
20260905223003 23 23 1.6 3.2 0.00 0.00 0.00 78 1018.5
20260905222503 23 25 0.0 3.2 0.00 0.00 0.00 78 1018.5
20260905222003 23 25 0.0 3.2 0.00 0.00 0.00 78 1018.2
20260905221503 23 31 0.0 3.2 0.00 0.00 0.00 78 1018.4
20260905221003 23 36 0.0 3.2 0.00 0.00 0.00 78 1018.5
20260905220503 23 41 0.0 1.6 0.00 0.00 0.00 78 1018.5
20260905220003 23 27 0.0 3.2 0.00 0.00 0.00 77 1018.3
20260905215503 24 17 0.0 3.2 0.00 0.00 0.00 77 1018.3
20260905215004 24 356 0.0 3.2 0.00 0.00 0.00 77 1018.1
20260905214503 23 321 0.0 3.2 0.00 0.00 0.00 77 1018.4
20260905214003 24 308 1.6 4.8 0.00 0.00 0.00 78 1018.2
20260905213503 24 302 3.2 4.8 0.00 0.00 0.00 77 1018.2
20260905213003 24 302 3.2 4.8 0.00 0.00 0.00 77 1018.2
20260905212503 24 333 1.6 4.8 0.00 0.00 0.00 77 1017.8
20260905212003 24 359 1.6 3.2 0.00 0.00 0.00 77 1018.0
20260905211503 24 359 1.6 3.2 0.00 0.00 0.00 76 1017.9
20260905211003 24 6 1.6 3.2 0.00 0.00 0.00 76 1017.6
20260905210503 24 12 1.6 3.2 0.00 0.00 0.00 75 1017.7
20260905210003 24 13 1.6 3.2 0.00 0.00 0.00 75 1017.7
20260905205503 25 16 0.0 3.2 0.00 0.00 0.00 75 1017.7
20260905205003 25 37 0.0 3.2 0.00 0.00 0.00 75 1017.7
20260905204503 25 32 0.0 3.2 0.00 0.00 0.00 75 1017.7
20260905204003 25 32 1.6 3.2 0.00 0.00 0.00 75 1017.7
20260905203503 25 36 1.6 3.2 0.00 0.00 0.00 75 1017.5
20260905203003 25 36 1.6 3.2 0.00 0.00 0.00 74 1017.7
20260905202504 25 53 1.6 3.2 0.00 0.00 0.00 74 1017.8
20260905202003 25 67 1.6 3.2 0.00 0.00 0.00 74 1017.7
20260905201503 25 42 0.0 3.2 0.00 0.00 0.00 74 1017.5
20260905201003 25 26 0.0 3.2 0.00 0.00 0.00 74 1017.7
20260905200503 25 23 0.0 3.2 0.00 0.00 0.00 73 1017.5
20260905200003 25 9 1.6 3.2 0.00 0.00 0.00 73 1017.5
20260905195503 25 3 1.6 3.2 0.00 0.00 0.00 73 1017.3
20260905195004 25 352 1.6 3.2 0.00 0.00 0.00 73 1017.5
20260905194503 25 305 1.6 3.2 0.00 0.00 0.00 73 1017.3
20260905194003 25 243 0.0 3.2 0.00 0.00 0.00 73 1017.3
20260905193503 25 211 0.0 3.2 0.00 0.00 0.00 72 1017.2
20260905193003 25 185 0.0 3.2 0.00 0.00 0.00 72 1017.2
20260905192503 25 205 0.0 3.2 0.00 0.00 0.00 71 1017.1
20260905192003 26 139 0.0 3.2 0.00 0.00 0.00 71 1017.2
20260905191503 26 113 1.6 3.2 0.00 0.00 0.00 70 1017.1
20260905191003 26 119 1.6 4.8 0.00 0.00 0.00 70 1016.9
20260905190503 26 117 3.2 6.4 0.00 0.00 0.00 70 1016.9
20260905190003 26 115 4.8 6.4 0.00 0.00 0.00 69 1016.8
20260905185503 26 112 4.8 6.4 0.00 0.00 0.00 69 1016.9
20260905185003 26 113 3.2 6.4 0.00 0.00 0.00 68 1016.8
20260905184503 26 117 4.8 8.0 0.00 0.00 0.00 68 1016.4
20260905184003 26 120 3.2 8.0 0.00 0.00 0.00 68 1016.4
20260905183503 26 129 3.2 4.8 0.00 0.00 0.00 68 1016.5
20260905183003 26 133 3.2 8.0 0.00 0.00 0.00 67 1016.1
20260905182503 27 127 4.8 8.0 0.00 0.00 0.00 67 1016.1
20260905182003 27 125 4.8 8.0 0.00 0.00 0.00 67 1015.9
20260905181503 27 129 4.8 8.0 0.00 0.00 0.00 66 1015.8
20260905181003 27 133 4.8 8.0 0.00 0.00 0.00 66 1015.9
20260905180503 27 138 4.8 8.0 0.00 0.00 0.00 65 1015.9
20260905180003 27 146 4.8 8.0 0.00 0.00 0.00 65 1015.8
20260905175503 27 149 4.8 8.0 0.00 0.00 0.00 65 1015.8
20260905175003 28 143 4.8 9.7 0.00 0.00 0.00 64 1015.6
20260905174503 28 137 6.4 9.7 0.00 0.00 0.00 64 1015.8
20260905174003 28 140 4.8 9.7 0.00 0.00 0.00 63 1015.6
20260905173503 28 135 4.8 9.7 0.00 0.00 0.00 63 1015.2
20260905173003 28 129 4.8 8.0 0.00 0.00 0.00 63 1015.6
20260905172503 28 130 4.8 11.3 0.00 0.00 0.00 63 1015.6
20260905172003 29 127 6.4 11.3 0.00 0.00 0.00 62 1015.5
20260905171503 29 121 6.4 11.3 0.00 0.00 0.00 62 1015.4
20260905171003 29 121 6.4 11.3 0.00 0.00 0.00 61 1015.6
20260905170503 29 119 8.0 14.5 0.00 0.00 0.00 61 1015.1
20260905170003 30 119 8.0 16.1 0.00 0.00 0.00 61 1015.5
20260905165503 30 118 6.4 16.1 0.00 0.00 0.00 60 1015.4
20260905165003 30 119 8.0 17.7 0.00 0.00 0.00 60 1015.6
20260905164503 30 130 8.0 17.7 0.00 0.00 0.00 59 1015.2
20260905164003 31 157 6.4 17.7 0.00 0.00 0.00 50 1015.4
20260905163503 31 177 6.4 9.7 0.00 0.00 0.00 50 1015.1
20260905163003 31 182 4.8 9.7 0.00 0.00 0.00 50 1014.9
20260905162503 31 199 4.8 11.3 0.00 0.00 0.00 49 1015.1
20260905162003 31 211 6.4 12.9 0.00 0.00 0.00 48 1015.1
20260905161503 31 217 6.4 14.5 0.00 0.00 0.00 49 1014.9
20260905161003 31 214 4.8 14.5 0.00 0.00 0.00 49 1015.1
20260905160503 32 200 4.8 14.5 0.00 0.00 0.00 49 1015.0
20260905160003 32 215 4.8 9.7 0.00 0.00 0.00 48 1015.2
20260905155503 32 232 6.4 9.7 0.00 0.00 0.00 49 1014.9
20260905155003 32 226 6.4 11.3 0.00 0.00 0.00 48 1015.0
20260905154503 32 215 6.4 11.3 0.00 0.00 0.00 48 1014.9
20260905154003 32 197 4.8 9.7 0.00 0.00 0.00 47 1014.7
20260905153503 32 198 3.2 9.7 0.00 0.00 0.00 48 1014.6
20260905153003 32 199 3.2 9.7 0.00 0.00 0.00 48 1014.6
20260905152504 32 207 4.8 12.9 0.00 0.00 0.00 48 1014.6
20260905152003 32 230 6.4 16.1 0.00 0.00 0.00 47 1014.8
20260905151503 32 252 4.8 16.1 0.00 0.00 0.00 47 1014.6
20260905151003 32 262 3.2 11.3 0.00 0.00 0.00 47 1014.7
20260905150503 32 211 4.8 11.3 0.00 0.00 0.00 48 1014.7
20260905150003 32 187 6.4 11.3 0.00 0.00 0.00 48 1014.6
20260905145503 33 209 4.8 9.7 0.00 0.00 0.00 48 1014.8
20260905145003 33 236 4.8 16.1 0.00 0.00 0.00 47 1014.9
20260905144503 33 227 4.8 16.1 0.00 0.00 0.00 47 1014.6
20260905144003 33 240 3.2 12.9 0.00 0.00 0.00 48 1015.1
20260905143503 33 206 4.8 16.1 0.00 0.00 0.00 47 1014.8
20260905143003 33 199 6.4 16.1 0.00 0.00 0.00 48 1014.9
20260905142503 33 212 6.4 12.9 0.00 0.00 0.00 47 1014.8
20260905142003 33 215 8.0 17.7 0.00 0.00 0.00 48 1014.9
20260905141503 33 205 9.7 17.7 0.00 0.00 0.00 46 1015.0
20260905141003 33 195 8.0 17.7 0.00 0.00 0.00 45 1014.8
20260905140503 33 204 4.8 14.5 0.00 0.00 0.00 47 1014.7
20260905140004 33 249 4.8 14.5 0.00 0.00 0.00 47 1015.0
20260905135503 33 240 8.0 16.1 0.00 0.00 0.00 47 1015.0
20260905135003 33 232 4.8 16.1 0.00 0.00 0.00 46 1015.0
20260905134503 33 217 3.2 9.7 0.00 0.00 0.00 45 1015.1
20260905134003 33 221 4.8 9.7 0.00 0.00 0.00 46 1015.2
20260905133503 33 264 4.8 14.5 0.00 0.00 0.00 46 1015.1
20260905133003 33 263 6.4 17.7 0.00 0.00 0.00 48 1015.2
20260905132503 33 223 8.0 17.7 0.00 0.00 0.00 49 1015.1
20260905132003 33 198 6.4 17.7 0.00 0.00 0.00 48 1015.1
20260905131503 33 207 4.8 12.9 0.00 0.00 0.00 50 1015.5
20260905131003 33 226 6.4 16.1 0.00 0.00 0.00 50 1015.4
20260905130503 33 194 4.8 16.1 0.00 0.00 0.00 51 1015.2
20260905130003 33 198 4.8 11.3 0.00 0.00 0.00 52 1015.5
20260905125503 33 242 4.8 11.3 0.00 0.00 0.00 52 1015.5
20260905125003 32 315 4.8 12.9 0.00 0.00 0.00 52 1015.7
20260905124503 32 354 4.8 12.9 0.00 0.00 0.00 51 1015.9
20260905124003 32 359 3.2 8.0 0.00 0.00 0.00 52 1015.6
20260905123503 32 245 3.2 8.0 0.00 0.00 0.00 52 1015.7
20260905123003 32 246 1.6 6.4 0.00 0.00 0.00 52 1015.7
20260905122503 32 227 3.2 12.9 0.00 0.00 0.00 54 1015.7
20260905122003 32 224 6.4 14.5 0.00 0.00 0.00 55 1015.9
20260905121503 32 238 4.8 14.5 0.00 0.00 0.00 54 1016.0
20260905121003 32 263 3.2 12.9 0.00 0.00 0.00 55 1016.0
20260905120503 31 272 4.8 12.9 0.00 0.00 0.00 55 1015.9
20260905120003 31 293 3.2 11.3 0.00 0.00 0.00 55 1016.1
20260905115503 31 15 3.2 9.7 0.00 0.00 0.00 55 1016.2
20260905115003 31 4 4.8 11.3 0.00 0.00 0.00 54 1016.3
20260905114503 31 1 3.2 11.3 0.00 0.00 0.00 52 1016.0
20260905114003 31 12 3.2 8.0 0.00 0.00 0.00 53 1016.0
20260905113503 31 9 3.2 8.0 0.00 0.00 0.00 53 1015.9
20260905113003 31 303 3.2 8.0 0.00 0.00 0.00 53 1016.4
20260905112503 31 279 4.8 11.3 0.00 0.00 0.00 54 1016.4
20260905112003 31 283 3.2 11.3 0.00 0.00 0.00 55 1016.1
20260905111503 31 202 3.2 8.0 0.00 0.00 0.00 55 1016.3
20260905111003 30 253 3.2 11.3 0.00 0.00 0.00 57 1016.3
20260905110503 30 258 4.8 11.3 0.00 0.00 0.00 56 1016.4
20260905110003 30 208 4.8 11.3 0.00 0.00 0.00 57 1016.3
20260905105503 30 249 3.2 11.3 0.00 0.00 0.00 57 1016.3
20260905105003 30 301 6.4 14.5 0.00 0.00 0.00 57 1016.2
20260905104503 30 310 6.4 14.5 0.00 0.00 0.00 57 1016.3
20260905104003 30 307 3.2 11.3 0.00 0.00 0.00 58 1016.5
20260905103503 29 273 3.2 9.7 0.00 0.00 0.00 59 1016.3
20260905103003 29 322 3.2 9.7 0.00 0.00 0.00 59 1016.5
20260905102503 29 342 4.8 9.7 0.00 0.00 0.00 59 1016.2
20260905102003 29 343 4.8 9.7 0.00 0.00 0.00 59 1016.2
20260905101503 29 342 3.2 9.7 0.00 0.00 0.00 60 1016.1
20260905101003 29 334 1.6 8.0 0.00 0.00 0.00 60 1016.5
20260905100503 29 320 4.8 9.7 0.00 0.00 0.00 59 1016.4